FENGYUN 1C DEB, 33639

Orbit data source: Space-Track

FENGYUN 1C DEB, 33639 is space debris in SSO originally from a launch on Mon, 10 May 1999 UTC launched from the Taiyaun Space Center, China (TSC). Fengyun 1C debris stems from the Chinese weather satellite Fengyun-1C, which was intentionally destroyed by a Chinese anti-satellite missile in 2007. This event dramatically increased the amount of space debris, with thousands of trackable fragments posing hazards to satellites and human spaceflight. The Fengyun 1C debris cloud has become a focal point in discussions about space sustainability and the need for international regulations to prevent the creation of new debris.

Loading next visibility...
Identifier
33639, 1999-025DDY
Orbit
SSO
Country
Flag of CNCN / PRC
Related business
Manufacturer
Unknown
Mission
Spacecraft
Bus & Motor
Unknown
Mass
Unknown
Launch date (UTC)
1999-05-10 (27 years ago)
Launch vehicle
Unknown
Launch site
Taiyaun Space Center, China (TSC)
Object type
Payload
Rocket body
Debris
Shape & HBR
Unknown shape, 0.1 m
Radar Cross Section
Small (<0.1 m²)

Expand to show TLE details & history
Last TLE update: 1 month ago

TLE from 1 month ago
0 FENGYUN 1C DEB
1 33639U 99025DDY 26203.49528240  .00004050  00000-0  12004-2 0  9994
2 33639  98.7100 303.9556 0046261 348.7486  11.2665 14.43286145637781
Epoch: 2026-07-22T11:53Z
TLE epoch observation values (Epoch: 2026-07-22T11:53:12.399Z)
Latitude
-0.00001°
Longitude
-174.59586°
Altitude
718.278 km
Speed
7.513 km/s
True Right ascension
20h 15m 49s
True Declination
0° 00' 00"
Sunlit
Object was in full shadow at epoch
Visualization orbit readout
Latitude
Unknown
Longitude
Unknown
Altitude
Unknown
Speed
Unknown
Apparent Right ascension
Unknown
Apparent Declination
Unknown
Sunlit
N/A
Visualization observer readout
Local Sidereal Time
16:39:20
Azimuth
Unknown
Elevation
Unknown
Doppler factor
Unknown
Orbital elements
Apogee altitude
777.74 km
Perigee altitude
711.838 km
Semi-major axis
7,122.926 km
Eccentricity
0.00463
Inclination
98.71°
RAAN
303.9556°
Arg. of periapsis
348.7486°
True anomaly
11.37066°
Mean anomaly
11.2665°
Eccentric anomaly
11.31852°
Mean motion
3.6104 °/min
Orbital period
99.71 mins
BSTAR
0.0012004
Loading maneuver chart data...
Computing Atmospheric mass density...
Loading historical data...
Loading historical data...
Loading historical data...
Loading historical data...
Loading historical data...
Loading historical data...
Loading historical data...

Documentation

Showing up to 5 results
|